Time,TemperatureF,DewpointF,PressureIn,WindDirection,WindDirectionDegrees,WindSpeedMPH,WindSpeedGustMPH,Humidity,HourlyPrecipIn,Conditions,Clouds,dailyrainin,SoftwareType,DateUTC
2013-07-22 00:08:00,66.4,59.0,29.93,NE,55,0.0,2.0,77,0.68,,,0.02,weatherlink.com 1.10,2013-07-22 04:08:00,
2013-07-22 00:24:00,66.5,59.0,29.91,ENE,69,0.0,4.0,77,0.29,,,0.08,weatherlink.com 1.10,2013-07-22 04:24:00,
2013-07-22 00:39:00,66.4,59.0,29.90,East,81,0.0,2.0,77,0.20,,,0.10,weatherlink.com 1.10,2013-07-22 04:39:00,
2013-07-22 00:54:00,66.4,59.0,29.89,ESE,118,0.0,1.0,77,0.13,,,0.10,weatherlink.com 1.10,2013-07-22 04:54:00,
2013-07-22 01:09:00,66.2,59.0,29.89,SE,134,0.0,1.0,77,0.07,,,0.10,weatherlink.com 1.10,2013-07-22 05:09:00,
2013-07-22 01:24:00,65.9,59.0,29.88,East,92,0.0,2.0,78,0.01,,,0.10,weatherlink.com 1.10,2013-07-22 05:24:00,
2013-07-22 01:39:00,65.6,59.0,29.88,West,274,0.0,4.0,78,0.00,,,0.10,weatherlink.com 1.10,2013-07-22 05:39:00,
2013-07-22 01:54:00,65.5,58.0,29.87,ESE,113,0.0,1.0,78,0.00,,,0.10,weatherlink.com 1.10,2013-07-22 05:54:00,
2013-07-22 02:09:00,65.5,58.0,29.88,SE,136,0.0,1.0,78,0.00,,,0.10,weatherlink.com 1.10,2013-07-22 06:09:00,
2013-07-22 02:24:00,65.4,58.0,29.87,SE,136,0.0,0.0,78,0.00,,,0.10,weatherlink.com 1.10,2013-07-22 06:24:00,
2013-07-22 02:39:00,65.4,58.0,29.87,SE,138,0.0,0.0,78,0.00,,,0.10,weatherlink.com 1.10,2013-07-22 06:39:00,
2013-07-22 02:54:00,65.1,58.0,29.86,SE,137,0.0,0.0,78,0.00,,,0.10,weatherlink.com 1.10,2013-07-22 06:54:00,
2013-07-22 03:09:00,65.1,58.0,29.86,SE,138,0.0,0.0,78,0.00,,,0.10,weatherlink.com 1.10,2013-07-22 07:09:00,
2013-07-22 03:24:00,65.0,58.0,29.86,SE,136,0.0,0.0,78,0.00,,,0.10,weatherlink.com 1.10,2013-07-22 07:24:00,
2013-07-22 03:39:00,64.9,58.0,29.86,SE,136,0.0,0.0,78,0.00,,,0.10,weatherlink.com 1.10,2013-07-22 07:39:00,
2013-07-22 03:54:00,64.9,58.0,29.86,SE,136,0.0,0.0,78,0.00,,,0.10,weatherlink.com 1.10,2013-07-22 07:54:00,
2013-07-22 04:09:00,64.8,58.0,29.85,SE,136,0.0,0.0,78,0.00,,,0.10,weatherlink.com 1.10,2013-07-22 08:09:00,
2013-07-22 04:24:00,64.7,58.0,29.84,SE,136,0.0,0.0,78,0.00,,,0.10,weatherlink.com 1.10,2013-07-22 08:24:00,
2013-07-22 04:39:00,64.6,58.0,29.84,SE,136,0.0,0.0,79,0.00,,,0.10,weatherlink.com 1.10,2013-07-22 08:39:00,
2013-07-22 04:54:00,64.7,58.0,29.84,SE,136,0.0,0.0,79,0.00,,,0.10,weatherlink.com 1.10,2013-07-22 08:54:00,
2013-07-22 05:09:00,64.6,58.0,29.83,SE,137,0.0,0.0,79,0.00,,,0.10,weatherlink.com 1.10,2013-07-22 09:09:00,
2013-07-22 05:24:00,64.6,58.0,29.84,SE,136,0.0,0.0,79,0.00,,,0.10,weatherlink.com 1.10,2013-07-22 09:24:00,
2013-07-22 05:39:00,64.4,58.0,29.84,SE,138,0.0,0.0,79,0.00,,,0.10,weatherlink.com 1.10,2013-07-22 09:39:00,
2013-07-22 05:54:00,64.5,58.0,29.84,SE,138,0.0,0.0,79,0.00,,,0.10,weatherlink.com 1.10,2013-07-22 09:54:00,
2013-07-22 06:09:00,64.7,58.0,29.84,SE,136,0.0,0.0,79,0.00,,,0.10,weatherlink.com 1.10,2013-07-22 10:09:00,
2013-07-22 06:24:00,64.9,58.0,29.85,SE,139,0.0,0.0,79,0.00,,,0.10,weatherlink.com 1.10,2013-07-22 10:24:00,
2013-07-22 06:39:00,65.1,59.0,29.85,SE,138,0.0,0.0,80,0.00,,,0.10,weatherlink.com 1.10,2013-07-22 10:39:00,
2013-07-22 06:54:00,65.2,59.0,29.85,SE,138,0.0,0.0,79,0.00,,,0.10,weatherlink.com 1.10,2013-07-22 10:54:00,
2013-07-22 07:09:00,65.3,59.0,29.84,SE,139,0.0,0.0,79,0.00,,,0.10,weatherlink.com 1.10,2013-07-22 11:09:00,
2013-07-22 07:24:00,65.5,59.0,29.84,SE,138,0.0,0.0,80,0.00,,,0.10,weatherlink.com 1.10,2013-07-22 11:24:00,
2013-07-22 07:39:00,65.8,60.0,29.84,SE,138,0.0,0.0,80,0.00,,,0.10,weatherlink.com 1.10,2013-07-22 11:39:00,
2013-07-22 07:54:00,66.4,60.0,29.84,SE,138,0.0,0.0,80,0.00,,,0.10,weatherlink.com 1.10,2013-07-22 11:54:00,
2013-07-22 08:09:00,66.5,60.0,29.84,SSE,151,0.0,1.0,79,0.00,,,0.10,weatherlink.com 1.10,2013-07-22 12:09:00,
2013-07-22 08:24:00,66.9,60.0,29.84,South,170,0.0,1.0,79,0.00,,,0.10,weatherlink.com 1.10,2013-07-22 12:24:00,
2013-07-22 08:39:00,67.3,60.0,29.83,SSE,155,4.0,4.0,78,0.00,,,0.10,weatherlink.com 1.10,2013-07-22 12:39:00,
2013-07-22 08:54:00,68.0,61.0,29.84,SSE,150,0.0,1.0,78,0.00,,,0.10,weatherlink.com 1.10,2013-07-22 12:54:00,
2013-07-22 09:10:00,69.0,62.0,29.84,SSE,168,1.0,3.0,79,0.00,,,0.10,weatherlink.com 1.10,2013-07-22 13:10:00,
2013-07-22 09:25:00,70.1,65.0,29.84,SSW,212,1.0,6.0,84,0.00,,,0.10,weatherlink.com 1.10,2013-07-22 13:25:00,
2013-07-22 09:40:00,71.3,66.0,29.84,SSE,165,2.0,5.0,84,0.00,,,0.10,weatherlink.com 1.10,2013-07-22 13:40:00,
2013-07-22 09:55:00,72.2,67.0,29.84,SSW,203,0.0,4.0,84,0.00,,,0.10,weatherlink.com 1.10,2013-07-22 13:55:00,
2013-07-22 10:10:00,73.3,68.0,29.84,West,269,1.0,4.0,83,0.00,,,0.10,weatherlink.com 1.10,2013-07-22 14:10:00,
2013-07-22 10:25:00,73.6,68.0,29.84,WSW,248,0.0,4.0,82,0.00,,,0.10,weatherlink.com 1.10,2013-07-22 14:25:00,
2013-07-22 10:40:00,74.5,68.0,29.84,WSW,238,1.0,3.0,81,0.00,,,0.10,weatherlink.com 1.10,2013-07-22 14:40:00,
2013-07-22 10:55:00,75.0,68.0,29.83,West,259,0.0,3.0,80,0.00,,,0.10,weatherlink.com 1.10,2013-07-22 14:55:00,
2013-07-22 11:10:00,75.3,68.0,29.84,WSW,238,2.0,5.0,79,0.00,,,0.10,weatherlink.com 1.10,2013-07-22 15:10:00,
2013-07-22 11:25:00,75.3,68.0,29.84,WNW,288,1.0,4.0,79,0.00,,,0.10,weatherlink.com 1.10,2013-07-22 15:25:00,
2013-07-22 11:40:00,76.2,69.0,29.83,WNW,291,3.0,5.0,79,0.00,,,0.10,weatherlink.com 1.10,2013-07-22 15:40:00,
2013-07-22 11:55:00,77.9,69.0,29.83,SSE,166,2.0,4.0,75,0.00,,,0.10,weatherlink.com 1.10,2013-07-22 15:55:00,
2013-07-22 12:10:00,78.9,70.0,29.83,East,81,1.0,5.0,75,0.00,,,0.10,weatherlink.com 1.10,2013-07-22 16:10:00,
2013-07-22 12:25:00,79.3,70.0,29.83,WNW,297,4.0,6.0,72,0.00,,,0.10,weatherlink.com 1.10,2013-07-22 16:25:00,
2013-07-22 12:40:00,80.1,70.0,29.82,SE,142,0.0,7.0,71,0.00,,,0.10,weatherlink.com 1.10,2013-07-22 16:40:00,
2013-07-22 12:55:00,80.0,69.0,29.82,SW,232,4.0,4.0,68,0.00,,,0.10,weatherlink.com 1.10,2013-07-22 16:55:00,
2013-07-22 13:10:00,79.9,70.0,29.82,West,262,0.0,5.0,71,0.00,,,0.10,weatherlink.com 1.10,2013-07-22 17:10:00,
2013-07-22 13:25:00,80.5,69.0,29.81,West,262,0.0,4.0,67,0.00,,,0.10,weatherlink.com 1.10,2013-07-22 17:25:00,
2013-07-22 13:40:00,80.9,69.0,29.81,SW,222,1.0,6.0,67,0.00,,,0.10,weatherlink.com 1.10,2013-07-22 17:40:00,
2013-07-22 13:55:00,80.1,69.0,29.81,WNW,282,3.0,6.0,69,0.00,,,0.10,weatherlink.com 1.10,2013-07-22 17:55:00,
2013-07-22 14:25:00,82.6,70.0,29.80,SSW,194,1.0,4.0,65,0.00,,,0.10,weatherlink.com 1.10,2013-07-22 18:25:00,
2013-07-22 14:40:00,83.3,69.0,29.80,SW,231,3.0,6.0,63,0.00,,,0.10,weatherlink.com 1.10,2013-07-22 18:40:00,
2013-07-22 14:55:00,83.1,68.0,29.80,West,264,2.0,6.0,61,0.00,,,0.10,weatherlink.com 1.10,2013-07-22 18:55:00,
2013-07-22 15:11:00,83.6,68.0,29.79,SSE,152,1.0,5.0,60,0.00,,,0.10,weatherlink.com 1.10,2013-07-22 19:11:00,
2013-07-22 15:41:00,84.1,69.0,29.78,SW,225,0.0,11.0,60,0.00,,,0.10,weatherlink.com 1.10,2013-07-22 19:41:00,
2013-07-22 16:26:00,84.6,68.0,29.77,SSW,199,2.0,6.0,58,0.00,,,0.10,weatherlink.com 1.10,2013-07-22 20:26:00,
2013-07-22 16:41:00,85.1,68.0,29.76,NNW,339,1.0,6.0,56,0.00,,,0.10,weatherlink.com 1.10,2013-07-22 20:41:00,
2013-07-22 16:56:00,86.0,68.0,29.75,ENE,70,3.0,6.0,55,0.00,,,0.10,weatherlink.com 1.10,2013-07-22 20:56:00,
2013-07-22 17:11:00,85.7,67.0,29.75,SSE,162,2.0,5.0,54,0.00,,,0.10,weatherlink.com 1.10,2013-07-22 21:11:00,
2013-07-22 17:26:00,86.3,68.0,29.75,West,280,0.0,6.0,54,0.00,,,0.10,weatherlink.com 1.10,2013-07-22 21:26:00,
2013-07-22 17:41:00,85.3,67.0,29.75,West,267,3.0,7.0,55,0.00,,,0.10,weatherlink.com 1.10,2013-07-22 21:41:00,
2013-07-22 17:56:00,85.0,68.0,29.75,West,266,3.0,7.0,56,0.00,,,0.10,weatherlink.com 1.10,2013-07-22 21:56:00,
2013-07-22 18:11:00,85.7,69.0,29.74,SSE,152,2.0,8.0,57,0.00,,,0.10,weatherlink.com 1.10,2013-07-22 22:11:00,
2013-07-22 18:26:00,85.6,68.0,29.73,SSW,203,1.0,5.0,56,0.00,,,0.10,weatherlink.com 1.10,2013-07-22 22:26:00,
2013-07-22 18:41:00,85.5,68.0,29.73,SSW,198,2.0,4.0,56,0.00,,,0.10,weatherlink.com 1.10,2013-07-22 22:41:00,
2013-07-22 18:56:00,85.4,68.0,29.72,SSE,158,1.0,6.0,57,0.00,,,0.10,weatherlink.com 1.10,2013-07-22 22:56:00,
2013-07-22 19:11:00,85.2,69.0,29.71,SSW,212,4.0,6.0,58,0.00,,,0.10,weatherlink.com 1.10,2013-07-22 23:11:00,
2013-07-22 19:26:00,84.8,68.0,29.71,East,86,2.0,6.0,57,0.00,,,0.10,weatherlink.com 1.10,2013-07-22 23:26:00,
2013-07-22 19:41:00,84.4,68.0,29.71,WNW,288,2.0,6.0,59,0.00,,,0.10,weatherlink.com 1.10,2013-07-22 23:41:00,
2013-07-22 19:56:00,83.8,68.0,29.71,SE,146,1.0,6.0,60,0.00,,,0.10,weatherlink.com 1.10,2013-07-22 23:56:00,
2013-07-22 20:11:00,83.4,68.0,29.72,SSW,210,3.0,6.0,61,0.00,,,0.10,weatherlink.com 1.10,2013-07-23 00:11:00,
2013-07-22 20:26:00,83.5,69.0,29.72,SW,221,1.0,4.0,62,0.00,,,0.10,weatherlink.com 1.10,2013-07-23 00:26:00,
2013-07-22 20:41:00,82.2,68.0,29.73,WNW,291,2.0,4.0,63,0.00,,,0.10,weatherlink.com 1.10,2013-07-23 00:41:00,
2013-07-22 20:56:00,80.4,68.0,29.73,WSW,257,2.0,3.0,67,0.00,,,0.10,weatherlink.com 1.10,2013-07-23 00:56:00,
2013-07-22 21:11:00,79.3,69.0,29.73,WSW,257,0.0,1.0,71,0.00,,,0.10,weatherlink.com 1.10,2013-07-23 01:11:00,
2013-07-22 21:26:00,78.4,70.0,29.71,SSW,207,0.0,0.0,74,0.00,,,0.10,weatherlink.com 1.10,2013-07-23 01:26:00,
2013-07-22 21:41:00,77.5,70.0,29.71,SE,135,0.0,0.0,77,0.00,,,0.10,weatherlink.com 1.10,2013-07-23 01:41:00,
2013-07-22 21:56:00,76.6,69.0,29.71,SSW,202,0.0,0.0,78,0.00,,,0.10,weatherlink.com 1.10,2013-07-23 01:56:00,
2013-07-22 22:11:00,75.9,69.0,29.71,SSW,194,0.0,0.0,80,0.00,,,0.10,weatherlink.com 1.10,2013-07-23 02:11:00,
2013-07-22 22:26:00,75.3,69.0,29.72,SSW,193,0.0,0.0,80,0.00,,,0.10,weatherlink.com 1.10,2013-07-23 02:26:00,
2013-07-22 22:41:00,75.3,69.0,29.74,West,273,1.0,2.0,80,0.00,,,0.10,weatherlink.com 1.10,2013-07-23 02:41:00,
2013-07-22 22:56:00,75.3,69.0,29.74,SE,136,0.0,1.0,80,0.00,,,0.10,weatherlink.com 1.10,2013-07-23 02:56:00,
2013-07-22 23:11:00,75.1,69.0,29.74,WNW,282,0.0,1.0,81,0.00,,,0.10,weatherlink.com 1.10,2013-07-23 03:11:00,
2013-07-22 23:26:00,75.2,69.0,29.74,West,267,0.0,2.0,81,0.00,,,0.10,weatherlink.com 1.10,2013-07-23 03:26:00,
2013-07-22 23:41:00,75.0,69.0,29.73,SSE,152,0.0,3.0,81,0.00,,,0.10,weatherlink.com 1.10,2013-07-23 03:41:00,
2013-07-22 23:56:00,74.6,68.0,29.72,SW,222,0.0,2.0,81,0.00,,,0.10,weatherlink.com 1.10,2013-07-23 03:56:00,